Tracking 19847 objects as of 15-Sep-2019
HD Live streaming from Space Station
objects crossing your sky now

DMSP 5D-3 F19 DEB

Track DMSP 5D-3 F19 DEB now!
10-day predictions


NORAD ID: 39632
Int'l Code: 2014-015C
Perigee: 839.5 km
Apogee: 846.8 km
Inclination: 98.7 °
Period: 101.6 minutes
Semi major axis: 7214 km
RCS: Unknown
Launch date: April 3, 2014
Source: United States (US)
Launch site: AIR FORCE WESTERN TEST RANGE (AFWTR)

Note: This is SATELLITE DEBRIS
aabbcc
Your satellite tracking list
Your tracking list is empty




NASA's NSSDC Master Catalog

Two Line Element Set (TLE):
1 39632U 14015C   19257.60725857 +.00000287 +00000-0 +16498-3 0  9996
2 39632 098.7499 274.7394 0005000 045.6097 314.5487 14.16856048281560
Source of the keplerian elements: AFSPC